Location: Ariel
(45.9570°N, 122.5700°W)
Time: 16:32:15
(UTC-08:00)

Transit 4A - Pass Details

Date: 31 October 2020
Orbit: 862 x 982 km, 66.8° (Epoch: 03 December)

Event Time Altitude Azimuth Distance (km) Brightness Sun altitude
Rises 19:12:13 0° 297° (WNW) 3,667 12.0 -13.5°
Reaches altitude 10° 19:16:54 10° 328° (NNW) 2,737 10.7 -14.4°
Maximum altitude 19:19:10 12° 349° (NNW) 2,604 10.3 -14.7°
Drops below altitude 10° 19:21:28 10° 10° (N) 2,745 10.2 -15.1°
Enters shadow 19:24:29 - 32° (NNE) 3,279 10.4 -15.7°
